SCP
0 0 0 0 0 0 0 0 0 0 0 0 0 0 0 0 0 0 0 0 0 0 0 0 0 0 0 0 0 0 0 0 0 0 0 0 0 0 0 0 0 0 0 0 0
0 0 0 0 0 0 0 0 0 0 0 0 0 0 0 0 0 0 0 0 0 0 0 0 0 0 0 0 0 0 0 0 0 0 0 0 0 0 0 0 0 0 0 0 0
0 0 0 0 0 0 0 0 0 0 0 0 0 0 0 0 0 0 0 0 0 0 0 0 0 0 0 0 0 0 0 0 0 0 0 0 0 0 0 0 0 0 0 0 0
0 0 0 0 0 0 0 0 0 0 0 0 0 0 0 0 0 0 0 0 0 0 0 0 0 0 0 0 0 0 0 0 0 0 0 0 0 0 0 0 0 0 0 0 0
0 0 0 0 0 0 0 0 0 0 0 0 0 0 0 0 0 0 0 0 0 0 0 0 0 0 0 0 0 0 0 0 0 0 0 0 0 0 0 0 0 0 0 0 0
0 0 0 0 0 0 0 0 0 0 0 0 0 0 0 0 0 0 0 0 0 0 0 0 0 0 0 0 0 0 0 0 0 0 0 0 0 0 0 0 0 0 0 0 0
0 0 0 0 0 0 0 0 0 0 0 0 0 0 0 0 0 0 0 0 0 0 0 0 0 0 0 0 0 0 0 0 0 0 0 0 0 0 0 0 0 0 0 0 0
0 0 0 0 0 0 0 0 0 0 0 0 0 0 0 0 0 0 0 0 0 0 0 0 0 0 0 0 0 0 0 0 0 0 0 0 0 0 0 0 0 0 0 0 0
0 0 0 0 0 0 0 0 0 0 0 0 0 0 0 0 0 0 0 0 0 0 0 0 0 0 0 0 0 0 0 0 0 0 0 0 0 0 0 0 0 0 0 0 0
0 0 0 0 0 0 0 -0 0 0 0 0 0 0 0 0 0 0 0 0 0 0 0 0 0 0 0 0 0 0 0 0 0 0 0 0 0 0 0 0 0 0 0 0 0
0 0 0 0 0 0 0 0 0 0 0 0 0 0 0 0 0 0 0 0 0 0 0 0 0 0 0 0 0 0 0 0 0 0 0 0 0 0 0 0 0 0 0 0 0
0 0 0 0 0 0 0 0 0 0 0 0 0 0 0 0 0 0 0 0 0 0 0 0 0 0 0 0 0 0 0 -0 0 0 0 0 0 0 0 0 0 0 0 0 0
0 0 0 0 0 0 0 0 0 0 0 0 0 0 0 0 0 0 0 0 0 0 0 0 0 0 0 0 0 0 0 0 -0 0 0 0 0 0 0 0 0 0 0 0 0
0 0 0 0 0 0 0 0 0 0 0 0 0 0 0 0 0 0 0 0 0 0 0 0 0 0 0 0 0 0 0 0 -0 -0 0 0 0 0 0 0 0 0 0 0 0
0 0 0 0 0 0 0 0 0 0 0 0 0 0 0 0 0 0 0 0 0 0 0 0 0 0 0 0 0 0 0 0 0 -0 -0 -0 0 0 0 0 0 0 0 0 0
0 0 0 0 0 0 0 0 0 0 0 0 0 0 0 0 0 0 0 0 0 0 0 0 0 0 0 0 0 0 0 0 0 0 -0 -0 0 0 0 0 0 0 0 0 0
0 0 0 0 0 0 0 0 0 0 0 0 0 0 0 0 0 0 0 0 0 0 0 0 0 0 0 0 0 0 0 0 0 -0 -0 -0 0 0 0 0 0 0 0 0 0
0 0 0 0 0 0 0 0 0 0 0 0 0 0 0 0 0 0 0 0 0 0 0 0 0 0 0 0 0 0 0 0 -0 -0 -0 0 -0 0 0 0 0 0 0 0 0
0 0 0 0 0 0 0 0 0 0 0 0 0 0 0 0 0 0 0 0 0 0 0 0 0 0 0 0 0 0 0 0 0 0 0 0 0 0 0 0 0 0 0 0 0
0 0 0 0 0 0 0 0 0 0 0 0 0 0 0 0 0 0 0 0 0 0 0 0 0 0 -0 0 0 0 0 0 0 0 0 0 0 0 0 0 0 0 0 0 0
0 0 0 0 0 0 0 0 0 0 0 0 0 0 0 0 0 0 0 0 -0 -0 -0 0 0 0 0 0 0 0 0 0 0 0 0 0 0 0 0 -0 0 0 0 0 0
0 0 0 0 0 0 0 0 0 0 0 0 0 0 0 0 0 0 0 -0 -0 -0 0 -0 0 0 0 0 0 0 0 0 0 0 0 0 0 -0 0 0 0 0 0 0 0
0 0 0 0 0 0 0 0 0 0 0 0 0 0 0 0 0 0 0 0 -0 0 -0 -0 0 0 0 0 0 0 0 0 0 0 0 0 0 0 0 0 0 0 0 -0 -0
0 0 0 0 0 0 0 0 0 0 0 0 0 0 0 0 0 0 0 0 -0 0 -0 -0 0 0 0 0 0 0 0 0 0 0 0 0 0 0 0 0 0 0 0 0 0
0 0 0 0 0 0 0 0 0 0 0 0 0 0 0 0 0 0 0 -0 0 -0 -0 0 0 0 -0 -0 0 0 0 0 0 0 0 0 0 0 0 0 0 0 0 -0 -0
0 0 0 0 0 0 0 0 0 0 0 0 0 0 0 0 0 0 -0 -0 0 -0 -0 -0 0 0 0 0 0 0 -0 0 0 0 0 0 0 -0 0 0 0 0 0 -0 -0
0 0 0 0 0 0 0 0 0 0 -0 0 0 0 0 0 0 -0 0 -0 -0 0 -0 -0 0 -0 0 0 0 0 0 0 0 0 0 0 0 0 0 0 0 0 0 -0 -0
Wind_Speed_500mb
13 14 16 20 22 23 24 26 28 31 34 36 35 33 34 35 32 21 20 26 30 36 34 43 42 29 27 39 36 38 22 25 36 39 23 37 20 36 18 33 25 11 25 40 65
10 12 14 17 20 21 22 25 27 30 32 36 37 36 33 33 34 28 24 33 39 41 35 31 36 31 16 30 22 19 16 29 35 28 27 24 38 25 17 37 26 35 43 64 67
13 13 14 17 20 22 24 27 29 31 31 34 37 37 34 27 27 4 13 23 33 38 32 32 27 33 23 33 45 39 30 35 55 52 46 28 37 44 23 16 39 58 66 75 66
19 16 15 17 20 24 26 27 29 31 32 34 35 37 32 20 8 19 25 21 18 24 20 22 24 9 10 26 40 39 42 50 66 69 18 8 50 45 39 10 48 59 67 72 61
24 25 21 19 21 25 27 27 28 29 30 32 34 34 34 14 17 21 34 27 11 16 19 25 23 18 11 23 39 40 37 57 64 45 18 24 22 15 17 35 54 56 64 64 58
25 22 23 22 21 25 28 28 29 30 31 33 34 33 20 20 18 21 30 20 13 18 22 27 20 24 12 12 27 14 45 51 64 37 38 16 21 31 13 45 59 68 62 54 55
28 25 22 21 21 24 27 28 30 31 31 32 32 30 26 29 26 29 25 25 23 20 24 22 31 25 10 2 30 30 23 38 44 43 26 24 10 5 44 45 56 53 57 61 58
22 23 22 21 21 22 25 27 30 33 32 31 29 18 15 22 21 20 25 27 18 22 22 28 30 32 15 13 7 11 24 13 35 42 29 29 30 21 39 46 45 52 57 57 56
23 21 20 19 18 19 23 27 30 33 32 26 15 10 14 19 21 30 25 23 23 21 27 25 25 20 17 5 6 6 5 23 33 52 24 28 16 26 42 39 42 43 48 56 54
19 18 16 14 13 16 21 26 24 21 18 17 7 13 7 28 39 37 16 21 23 22 25 21 20 11 19 13 9 13 10 16 26 34 31 33 13 30 44 45 42 43 41 50 51
16 16 13 8 8 12 18 20 15 6 15 11 20 21 28 37 24 16 19 21 25 26 24 36 13 18 30 24 13 13 8 12 13 27 34 33 21 31 38 41 43 42 41 43 46
16 14 10 5 3 8 13 8 7 10 16 18 14 18 18 17 20 15 15 14 19 22 28 22 25 26 20 28 23 21 8 9 3 13 19 27 20 29 32 33 47 51 47 49 47
16 14 11 7 2 7 10 11 12 13 11 3 8 11 13 17 19 25 19 22 23 27 27 28 24 27 25 22 26 27 26 12 7 5 6 19 10 30 21 26 35 41 47 49 53
18 16 14 10 6 7 9 12 14 15 5 2 0 2 9 22 10 21 16 15 8 18 24 22 22 32 31 24 25 23 25 19 11 4 3 12 9 23 23 23 23 33 42 55 47
20 19 15 7 6 5 6 11 12 9 7 7 6 12 23 14 27 1 8 12 23 27 14 14 17 21 27 25 23 18 16 31 11 11 4 9 6 9 28 22 31 40 42 45 53
24 20 15 7 5 5 7 9 9 3 8 5 7 13 19 25 15 21 22 15 22 19 25 26 37 10 14 14 22 6 19 21 20 7 7 16 7 6 21 33 26 33 52 54 55
25 20 13 9 2 5 8 10 3 3 4 11 8 17 26 13 18 8 17 17 13 8 8 17 27 16 8 13 5 7 4 5 7 6 5 27 18 12 5 13 34 40 55 60 64
23 18 11 6 5 7 11 4 1 1 4 5 9 27 11 16 9 23 14 17 20 24 22 11 12 24 19 21 8 13 11 3 9 11 10 15 14 8 5 23 31 60 55 60 60
22 17 10 7 7 8 0 1 2 3 5 10 20 7 7 6 8 13 12 22 19 17 10 8 11 4 14 14 15 5 17 3 2 3 5 3 5 9 12 4 8 43 54 55 56
21 12 9 9 9 11 6 2 1 3 8 4 7 9 12 13 12 14 9 12 16 18 37 11 18 12 13 17 14 6 4 5 5 3 4 5 5 7 13 18 20 27 45 50 54
17 7 9 11 11 4 1 1 3 4 5 3 3 7 11 12 11 6 12 18 14 23 35 20 12 9 6 10 12 5 6 8 6 7 4 5 6 7 9 33 40 35 53 66 66
15 3 12 16 7 3 3 6 2 4 5 5 3 9 8 11 8 8 9 12 25 10 15 12 3 6 12 7 6 3 12 12 5 6 4 4 3 8 10 8 20 41 44 46 62
15 6 10 17 4 5 2 4 6 8 6 6 8 12 5 7 11 11 12 13 17 9 9 10 6 5 12 5 1 11 9 8 14 7 7 7 4 4 6 7 26 43 50 51 47
13 5 4 11 6 3 7 5 5 12 11 9 15 14 7 11 6 11 13 13 30 10 32 19 4 5 5 3 7 9 11 15 11 3 2 3 5 5 7 6 20 37 48 56 64
12 6 9 6 7 7 9 8 5 4 10 6 8 13 8 7 17 5 8 24 17 25 20 10 6 8 5 9 9 3 16 16 15 7 4 6 3 9 9 14 18 36 49 56 58
14 11 10 9 9 9 11 10 12 5 11 7 11 11 5 10 8 16 20 12 6 18 16 14 5 4 8 13 10 5 9 15 12 11 12 15 9 9 8 25 28 37 46 50 56
26 18 10 11 7 7 8 8 9 11 16 17 10 8 13 7 12 25 26 28 26 11 14 9 10 7 2 4 5 13 16 20 10 12 13 17 9 10 9 14 32 42 50 54 58
Wind_Direction_500mb
343 353 357 359 358 356 354 351 349 347 347 347 346 342 331 324 316 306 297 263 253 264 271 269 252 254 275 264 267 270 271 262 246 247 245 176 169 200 121 119 93 64 170 177 151
337 345 338 344 347 348 347 346 345 346 344 343 344 344 341 334 325 321 264 255 256 263 266 277 266 250 257 255 244 233 263 256 258 241 251 203 171 152 143 119 107 102 125 148 145
346 336 337 336 338 341 340 341 343 344 344 342 343 344 345 343 328 73 311 286 266 260 272 260 265 248 250 261 255 240 242 263 277 265 245 220 189 171 186 176 158 152 146 148 165
319 322 314 323 329 330 329 334 338 341 341 341 343 343 346 1 327 351 328 309 303 292 251 261 250 217 226 237 252 261 239 249 263 277 250 261 182 177 192 148 171 163 160 155 161
292 294 300 309 318 318 321 327 332 336 338 339 341 346 350 325 297 311 306 293 318 306 260 243 228 219 218 235 263 267 270 246 259 269 279 242 128 116 79 121 149 154 157 158 157
283 287 287 293 302 309 315 323 325 330 332 335 339 340 341 298 304 329 316 309 301 306 273 246 244 242 229 233 232 299 312 292 263 258 272 245 129 158 137 136 141 149 155 163 162
272 273 276 283 292 300 311 318 319 323 327 329 333 335 307 277 297 317 343 311 290 284 291 263 245 241 217 164 250 244 290 303 276 245 209 201 143 238 151 149 146 152 154 166 166
269 268 268 275 285 297 307 313 316 320 322 323 326 345 279 297 333 344 327 317 293 273 269 262 243 239 254 210 222 236 245 253 258 245 198 170 206 143 159 155 143 145 158 165 163
256 263 262 267 281 295 306 312 319 319 318 320 343 305 294 325 328 318 318 306 294 261 259 263 233 227 230 195 103 224 236 246 273 236 184 188 180 160 165 169 154 153 160 168 167
239 248 251 260 280 299 314 321 328 332 350 351 326 298 232 329 314 311 323 300 290 279 258 243 235 233 218 201 203 168 194 243 257 224 199 198 195 154 173 170 164 162 163 169 168
227 227 234 249 283 315 332 3 342 331 328 281 294 284 299 315 327 319 312 300 277 254 252 240 234 228 229 233 241 204 164 253 316 332 341 200 169 167 180 176 167 168 167 167 172
209 209 211 213 287 346 10 53 31 317 311 276 294 290 310 324 312 331 327 294 273 245 252 254 246 251 255 226 219 226 152 217 246 6 347 281 200 171 179 189 178 170 169 163 176
190 187 177 166 93 24 25 31 5 349 275 186 289 299 318 328 313 296 317 302 288 277 258 244 254 293 223 216 230 235 217 202 160 356 233 318 268 162 185 176 179 181 172 171 179
174 167 159 131 79 52 17 11 4 355 303 66 292 336 333 320 273 304 281 285 281 287 277 249 259 254 284 229 215 262 212 158 149 86 230 68 318 237 175 184 180 182 171 162 168
166 161 155 160 122 80 355 358 359 42 337 21 345 307 322 284 304 25 296 285 268 283 303 274 242 253 226 242 219 239 278 202 146 141 140 137 250 266 175 199 187 177 169 160 155
160 157 151 147 104 49 8 14 40 280 263 359 305 326 327 330 283 286 291 245 271 285 278 259 278 300 289 241 227 166 214 172 158 150 215 158 168 262 191 221 190 178 166 166 162
163 163 166 145 139 38 37 37 336 164 320 320 333 327 321 289 311 284 311 300 283 307 274 301 247 218 278 255 264 167 254 199 188 183 227 156 156 262 242 289 189 182 166 166 185
161 160 156 141 100 82 69 45 305 189 358 339 313 315 287 350 304 350 290 279 261 258 281 287 306 212 193 225 187 213 215 282 190 177 152 164 180 196 313 304 246 177 168 158 177
161 156 154 134 114 100 72 83 314 34 345 355 316 336 316 3 318 332 320 286 276 296 242 279 252 94 264 236 195 187 208 357 135 235 67 152 217 246 125 299 162 155 154 160 174
160 146 152 145 124 94 79 304 266 336 329 31 343 354 310 330 331 4 298 318 327 359 358 284 295 248 183 302 259 234 346 279 322 42 104 238 222 166 174 174 164 161 164 161 165
151 146 170 156 136 124 160 155 277 245 271 346 338 288 288 335 322 312 276 311 24 335 323 287 246 292 116 214 201 184 265 228 141 263 177 156 236 5 195 184 185 182 174 169 177
158 91 175 158 60 64 204 159 288 237 205 284 275 241 255 308 285 274 262 311 351 303 280 252 318 272 243 323 5 278 236 203 164 246 338 82 324 1 1 359 164 171 176 176 179
154 144 165 171 164 187 232 275 273 195 221 204 247 220 313 301 305 248 277 280 337 307 312 330 202 330 327 344 90 254 224 257 255 340 200 126 257 2 35 40 137 146 161 163 173
165 141 151 178 189 255 161 212 251 219 242 250 270 293 285 297 238 288 301 310 306 299 324 323 322 188 245 46 326 309 242 221 210 199 286 257 74 163 119 147 131 147 153 159 170
175 195 186 165 225 207 167 142 179 235 219 222 274 219 273 286 297 259 288 320 310 360 349 9 291 351 354 288 289 179 307 312 231 239 214 315 289 67 147 166 164 155 156 160 166
172 156 161 157 125 145 190 208 196 219 165 225 234 284 260 213 240 295 309 319 316 336 347 343 329 317 247 239 271 276 214 269 297 243 245 283 318 130 99 137 150 159 159 166 173
198 179 166 157 174 173 208 207 219 187 208 257 235 288 271 294 303 284 285 278 272 301 320 323 328 325 60 326 253 296 230 208 198 242 196 222 222 148 145 158 170 173 181 183 184
Wind_Speed_850mb
13 14 16 20 22 23 24 26 28 31 34 36 35 33 34 35 32 21 20 26 30 36 34 43 42 29 27 39 36 38 22 25 36 39 23 37 20 36 18 33 25 11 25 40 65
10 12 14 17 20 21 22 25 27 30 32 36 37 36 33 33 34 28 24 33 39 41 35 31 36 31 16 30 22 19 16 29 35 28 27 24 38 25 17 37 26 35 43 64 67
13 13 14 17 20 22 24 27 29 31 31 34 37 37 34 27 27 4 13 23 33 38 32 32 27 33 23 33 45 39 30 35 55 52 46 28 37 44 23 16 39 58 66 75 66
19 16 15 17 20 24 26 27 29 31 32 34 35 37 32 20 8 19 25 21 18 24 20 22 24 9 10 26 40 39 42 50 66 69 18 8 50 45 39 10 48 59 67 72 61
24 25 21 19 21 25 27 27 28 29 30 32 34 34 34 14 17 21 34 27 11 16 19 25 23 18 11 23 39 40 37 57 64 45 18 24 22 15 17 35 54 56 64 64 58
25 22 23 22 21 25 28 28 29 30 31 33 34 33 20 20 18 21 30 20 13 18 22 27 20 24 12 12 27 14 45 51 64 37 38 16 21 31 13 45 59 68 62 54 55
28 25 22 21 21 24 27 28 30 31 31 32 32 30 26 29 26 29 25 25 23 20 24 22 31 25 10 2 30 30 23 38 44 43 26 24 10 5 44 45 56 53 57 61 58
22 23 22 21 21 22 25 27 30 33 32 31 29 18 15 22 21 20 25 27 18 22 22 28 30 32 15 13 7 11 24 13 35 42 29 29 30 21 39 46 45 52 57 57 56
23 21 20 19 18 19 23 27 30 33 32 26 15 10 14 19 21 30 25 23 23 21 27 25 25 20 17 5 6 6 5 23 33 52 24 28 16 26 42 39 42 43 48 56 54
19 18 16 14 13 16 21 26 24 21 18 17 7 13 7 28 39 37 16 21 23 22 25 21 20 11 19 13 9 13 10 16 26 34 31 33 13 30 44 45 42 43 41 50 51
16 16 13 8 8 12 18 20 15 6 15 11 20 21 28 37 24 16 19 21 25 26 24 36 13 18 30 24 13 13 8 12 13 27 34 33 21 31 38 41 43 42 41 43 46
16 14 10 5 3 8 13 8 7 10 16 18 14 18 18 17 20 15 15 14 19 22 28 22 25 26 20 28 23 21 8 9 3 13 19 27 20 29 32 33 47 51 47 49 47
16 14 11 7 2 7 10 11 12 13 11 3 8 11 13 17 19 25 19 22 23 27 27 28 24 27 25 22 26 27 26 12 7 5 6 19 10 30 21 26 35 41 47 49 53
18 16 14 10 6 7 9 12 14 15 5 2 0 2 9 22 10 21 16 15 8 18 24 22 22 32 31 24 25 23 25 19 11 4 3 12 9 23 23 23 23 33 42 55 47
20 19 15 7 6 5 6 11 12 9 7 7 6 12 23 14 27 1 8 12 23 27 14 14 17 21 27 25 23 18 16 31 11 11 4 9 6 9 28 22 31 40 42 45 53
24 20 15 7 5 5 7 9 9 3 8 5 7 13 19 25 15 21 22 15 22 19 25 26 37 10 14 14 22 6 19 21 20 7 7 16 7 6 21 33 26 33 52 54 55
25 20 13 9 2 5 8 10 3 3 4 11 8 17 26 13 18 8 17 17 13 8 8 17 27 16 8 13 5 7 4 5 7 6 5 27 18 12 5 13 34 40 55 60 64
23 18 11 6 5 7 11 4 1 1 4 5 9 27 11 16 9 23 14 17 20 24 22 11 12 24 19 21 8 13 11 3 9 11 10 15 14 8 5 23 31 60 55 60 60
22 17 10 7 7 8 0 1 2 3 5 10 20 7 7 6 8 13 12 22 19 17 10 8 11 4 14 14 15 5 17 3 2 3 5 3 5 9 12 4 8 43 54 55 56
21 12 9 9 9 11 6 2 1 3 8 4 7 9 12 13 12 14 9 12 16 18 37 11 18 12 13 17 14 6 4 5 5 3 4 5 5 7 13 18 20 27 45 50 54
17 7 9 11 11 4 1 1 3 4 5 3 3 7 11 12 11 6 12 18 14 23 35 20 12 9 6 10 12 5 6 8 6 7 4 5 6 7 9 33 40 35 53 66 66
15 3 12 16 7 3 3 6 2 4 5 5 3 9 8 11 8 8 9 12 25 10 15 12 3 6 12 7 6 3 12 12 5 6 4 4 3 8 10 8 20 41 44 46 62
15 6 10 17 4 5 2 4 6 8 6 6 8 12 5 7 11 11 12 13 17 9 9 10 6 5 12 5 1 11 9 8 14 7 7 7 4 4 6 7 26 43 50 51 47
13 5 4 11 6 3 7 5 5 12 11 9 15 14 7 11 6 11 13 13 30 10 32 19 4 5 5 3 7 9 11 15 11 3 2 3 5 5 7 6 20 37 48 56 64
12 6 9 6 7 7 9 8 5 4 10 6 8 13 8 7 17 5 8 24 17 25 20 10 6 8 5 9 9 3 16 16 15 7 4 6 3 9 9 14 18 36 49 56 58
14 11 10 9 9 9 11 10 12 5 11 7 11 11 5 10 8 16 20 12 6 18 16 14 5 4 8 13 10 5 9 15 12 11 12 15 9 9 8 25 28 37 46 50 56
26 18 10 11 7 7 8 8 9 11 16 17 10 8 13 7 12 25 26 28 26 11 14 9 10 7 2 4 5 13 16 20 10 12 13 17 9 10 9 14 32 42 50 54 58
Wind_Direction_850mb
343 353 357 359 358 356 354 351 349 347 347 347 346 342 331 324 316 306 297 263 253 264 271 269 252 254 275 264 267 270 271 262 246 247 245 176 169 200 121 119 93 64 170 177 151
337 345 338 344 347 348 347 346 345 346 344 343 344 344 341 334 325 321 264 255 256 263 266 277 266 250 257 255 244 233 263 256 258 241 251 203 171 152 143 119 107 102 125 148 145
346 336 337 336 338 341 340 341 343 344 344 342 343 344 345 343 328 73 311 286 266 260 272 260 265 248 250 261 255 240 242 263 277 265 245 220 189 171 186 176 158 152 146 148 165
319 322 314 323 329 330 329 334 338 341 341 341 343 343 346 1 327 351 328 309 303 292 251 261 250 217 226 237 252 261 239 249 263 277 250 261 182 177 192 148 171 163 160 155 161
292 294 300 309 318 318 321 327 332 336 338 339 341 346 350 325 297 311 306 293 318 306 260 243 228 219 218 235 263 267 270 246 259 269 279 242 128 116 79 121 149 154 157 158 157
283 287 287 293 302 309 315 323 325 330 332 335 339 340 341 298 304 329 316 309 301 306 273 246 244 242 229 233 232 299 312 292 263 258 272 245 129 158 137 136 141 149 155 163 162
272 273 276 283 292 300 311 318 319 323 327 329 333 335 307 277 297 317 343 311 290 284 291 263 245 241 217 164 250 244 290 303 276 245 209 201 143 238 151 149 146 152 154 166 166
269 268 268 275 285 297 307 313 316 320 322 323 326 345 279 297 333 344 327 317 293 273 269 262 243 239 254 210 222 236 245 253 258 245 198 170 206 143 159 155 143 145 158 165 163
256 263 262 267 281 295 306 312 319 319 318 320 343 305 294 325 328 318 318 306 294 261 259 263 233 227 230 195 103 224 236 246 273 236 184 188 180 160 165 169 154 153 160 168 167
239 248 251 260 280 299 314 321 328 332 350 351 326 298 232 329 314 311 323 300 290 279 258 243 235 233 218 201 203 168 194 243 257 224 199 198 195 154 173 170 164 162 163 169 168
227 227 234 249 283 315 332 3 342 331 328 281 294 284 299 315 327 319 312 300 277 254 252 240 234 228 229 233 241 204 164 253 316 332 341 200 169 167 180 176 167 168 167 167 172
209 209 211 213 287 346 10 53 31 317 311 276 294 290 310 324 312 331 327 294 273 245 252 254 246 251 255 226 219 226 152 217 246 6 347 281 200 171 179 189 178 170 169 163 176
190 187 177 166 93 24 25 31 5 349 275 186 289 299 318 328 313 296 317 302 288 277 258 244 254 293 223 216 230 235 217 202 160 356 233 318 268 162 185 176 179 181 172 171 179
174 167 159 131 79 52 17 11 4 355 303 66 292 336 333 320 273 304 281 285 281 287 277 249 259 254 284 229 215 262 212 158 149 86 230 68 318 237 175 184 180 182 171 162 168
166 161 155 160 122 80 355 358 359 42 337 21 345 307 322 284 304 25 296 285 268 283 303 274 242 253 226 242 219 239 278 202 146 141 140 137 250 266 175 199 187 177 169 160 155
160 157 151 147 104 49 8 14 40 280 263 359 305 326 327 330 283 286 291 245 271 285 278 259 278 300 289 241 227 166 214 172 158 150 215 158 168 262 191 221 190 178 166 166 162
163 163 166 145 139 38 37 37 336 164 320 320 333 327 321 289 311 284 311 300 283 307 274 301 247 218 278 255 264 167 254 199 188 183 227 156 156 262 242 289 189 182 166 166 185
161 160 156 141 100 82 69 45 305 189 358 339 313 315 287 350 304 350 290 279 261 258 281 287 306 212 193 225 187 213 215 282 190 177 152 164 180 196 313 304 246 177 168 158 177
161 156 154 134 114 100 72 83 314 34 345 355 316 336 316 3 318 332 320 286 276 296 242 279 252 94 264 236 195 187 208 357 135 235 67 152 217 246 125 299 162 155 154 160 174
160 146 152 145 124 94 79 304 266 336 329 31 343 354 310 330 331 4 298 318 327 359 358 284 295 248 183 302 259 234 346 279 322 42 104 238 222 166 174 174 164 161 164 161 165
151 146 170 156 136 124 160 155 277 245 271 346 338 288 288 335 322 312 276 311 24 335 323 287 246 292 116 214 201 184 265 228 141 263 177 156 236 5 195 184 185 182 174 169 177
158 91 175 158 60 64 204 159 288 237 205 284 275 241 255 308 285 274 262 311 351 303 280 252 318 272 243 323 5 278 236 203 164 246 338 82 324 1 1 359 164 171 176 176 179
154 144 165 171 164 187 232 275 273 195 221 204 247 220 313 301 305 248 277 280 337 307 312 330 202 330 327 344 90 254 224 257 255 340 200 126 257 2 35 40 137 146 161 163 173
165 141 151 178 189 255 161 212 251 219 242 250 270 293 285 297 238 288 301 310 306 299 324 323 322 188 245 46 326 309 242 221 210 199 286 257 74 163 119 147 131 147 153 159 170
175 195 186 165 225 207 167 142 179 235 219 222 274 219 273 286 297 259 288 320 310 360 349 9 291 351 354 288 289 179 307 312 231 239 214 315 289 67 147 166 164 155 156 160 166
172 156 161 157 125 145 190 208 196 219 165 225 234 284 260 213 240 295 309 319 316 336 347 343 329 317 247 239 271 276 214 269 297 243 245 283 318 130 99 137 150 159 159 166 173
198 179 166 157 174 173 208 207 219 187 208 257 235 288 271 294 303 284 285 278 272 301 320 323 328 325 60 326 253 296 230 208 198 242 196 222 222 148 145 158 170 173 181 183 184